Find Insat 4A

NORAD ID: 28911 Int'l Des: 2005-049 Owner: ISRO Country: IN operational
HEOCIRCULAR

Live Position

Loading 3D Globe...

About Insat 4A

Description loading...

Upcoming Passes

Passes for default location (London). Set your location on the main map for personalized predictions.

Altitude History

Loading altitude history...

Two-Line Element Set

1 28911U 05049A 26105.35827502 -.00000161 00000-0 00000+0 0 9993
2 28911 6.2796 72.5005 0003561 139.8751 56.1541 0.99198778 44807
Epoch: Apr 15, 2026 • Age: 12 hours

Current Status

Altitude 36097.7 km
Velocity 3.06 km/s
Sub-Earth Point 1.80°N, 66.07°W
Launch Date Dec 21, 2005
Age 20.3 years
Type other

Technical Details

Classification Payload
Mass 3081.00 kg
Dry Mass 1425.00 kg
Total Mass 3081.00 kg
Length 2.80 m
Diameter 2.00 m
Span 15.40 m
Shape Box + 2 Pan
Manufacturer ISAC
Bus Type I3K
Phase Status In Orbit
Owner/State ISRO/IN

Most Searched